RH
90 80 75 70 67 72 76 79 87 99 79 71 61 50 45 43 48 52 39 71 55 71 85 77 70 68 59 43 32 22 18 17 17 15 17 19 22 26 27 28 30 29 26
99 99 97 94 90 89 89 98 100 100 94 84 77 61 50 44 54 54 78 93 58 99 94 77 80 78 54 44 33 20 19 18 19 19 24 27 28 33 34 37 35 37 38
92 100 100 100 100 100 100 100 100 100 100 95 84 71 58 49 52 60 100 67 99 100 76 81 89 85 48 49 38 24 20 19 20 22 27 35 40 41 44 47 46 47 48
60 80 100 100 100 100 100 100 100 100 100 100 92 75 65 57 55 83 69 93 100 91 62 90 95 80 53 53 39 25 21 20 24 30 32 37 41 47 49 51 56 60 57
82 83 97 100 100 100 100 100 100 100 100 100 91 76 72 71 65 68 80 88 98 85 74 96 87 66 66 50 34 23 21 21 29 38 43 47 46 49 56 55 56 58 56
100 100 100 100 100 100 100 100 100 100 100 100 96 79 82 83 71 78 75 83 94 85 97 85 88 80 58 45 29 23 22 25 35 42 46 50 56 60 63 64 64 68 71
86 99 100 100 100 100 100 100 100 100 100 98 98 89 97 84 73 68 93 100 95 98 86 96 90 70 56 39 27 24 22 30 37 43 47 56 63 66 68 69 68 70 69
99 94 95 98 100 100 100 100 99 100 99 94 100 98 97 92 87 88 96 95 100 100 100 100 77 69 50 33 25 23 22 32 39 46 52 56 57 61 63 66 65 60 64
100 100 100 91 90 100 100 99 92 97 88 97 100 94 96 95 88 93 98 99 100 100 100 81 67 60 42 27 25 22 29 36 40 45 51 52 55 61 65 68 64 67 66
100 100 100 100 99 100 96 92 90 86 92 99 100 99 96 92 88 91 94 100 100 100 88 66 58 51 30 25 22 23 31 34 38 46 48 50 56 60 68 80 81 73 58
99 100 100 100 100 100 100 100 96 91 99 100 100 100 92 90 83 92 99 100 100 87 70 56 51 31 26 24 22 28 33 37 43 46 50 56 60 67 69 59 43 33 26
100 100 100 100 100 100 100 100 100 99 96 100 100 86 89 83 80 99 100 100 95 75 66 51 30 25 24 24 27 31 38 44 45 48 54 59 58 49 33 22 16 11 10
90 87 97 100 96 100 100 100 100 100 100 95 82 86 84 93 100 100 100 86 77 68 51 30 26 24 25 27 34 37 40 45 48 51 56 58 49 24 13 10 9 10 9
68 63 83 77 82 82 98 97 100 95 87 79 75 78 99 100 100 93 78 75 53 52 27 26 25 24 29 33 36 40 43 46 50 53 50 31 16 11 9 9 9 8 9
43 46 50 58 66 67 53 46 44 46 55 65 100 100 99 59 87 76 58 39 44 30 25 22 24 31 35 36 39 44 48 54 56 42 17 10 9 9 9 9 9 9 9
36 39 38 44 49 55 45 36 38 46 96 94 81 67 44 74 56 46 36 41 34 23 20 27 33 34 34 37 45 49 47 40 24 14 9 8 7 8 8 8 8 8 8
42 38 34 38 46 46 40 42 70 70 48 55 50 63 79 47 46 37 37 34 24 20 27 32 33 35 36 44 50 42 29 13 8 8 7 7 7 7 7 7 8 7 7
42 40 37 36 35 35 33 32 38 41 34 45 58 69 46 41 34 34 32 27 21 27 31 32 30 34 44 44 31 18 10 8 8 7 7 6 6 6 7 7 7 7 7
44 44 41 38 35 34 34 32 33 36 42 43 63 47 46 34 33 32 27 22 28 34 32 27 30 41 40 22 10 8 8 7 7 7 6 6 6 6 6 6 6 6 7
48 47 48 46 45 41 39 39 42 44 47 53 44 47 34 32 31 25 22 28 34 36 28 30 40 33 18 8 7 6 7 6 6 6 5 5 4 4 4 4 4 4 5
47 47 48 54 50 48 48 46 46 47 48 47 43 35 33 30 26 23 30 35 35 26 32 38 29 14 8 7 6 6 6 6 6 4 4 4 4 4 4 4 4 4 5
51 48 52 52 53 51 48 51 49 49 47 40 36 33 29 28 23 35 38 37 27 34 36 24 12 7 7 6 6 6 6 5 4 3 5 5 4 4 3 3 3 4 4
54 56 54 55 53 53 52 50 49 44 40 35 32 30 27 28 38 41 35 28 39 32 21 10 7 6 6 6 6 6 4 4 4 4 6 5 4 4 3 3 3 3 4
64 59 60 57 56 53 52 48 43 37 34 33 32 27 32 42 42 34 38 38 29 21 10 7 7 6 6 5 5 4 5 5 5 5 6 5 3 3 3 3 3 3 4
66 65 60 57 53 49 45 39 36 37 35 28 32 40 47 41 40 40 32 24 11 7 7 7 6 6 6 5 4 5 6 7 7 6 6 4 3 3 3 2 3 3 4
65 59 54 51 46 42 36 41 40 32 36 46 49 44 43 46 38 28 18 9 7 7 7 7 6 6 5 4 6 7 7 6 6 6 6 4 3 3 2 2 3 3 3
Wind_Speed
40 43 44 45 46 47 48 48 47 43 44 45 44 45 46 47 49 50 51 53 57 60 57 62 64 63 66 70 72 69 68 68 69 67 61 60 62 61 61 61 58 57 57
41 41 42 46 49 51 52 50 46 45 46 48 47 49 50 50 50 52 57 57 62 61 60 67 68 68 73 75 76 73 72 72 71 68 65 66 66 67 69 68 68 64 61
46 45 45 48 50 52 49 48 48 49 49 50 49 52 54 54 54 55 59 62 65 62 69 71 72 73 78 79 80 78 77 75 72 69 70 71 73 74 75 77 77 73 70
47 47 47 48 48 48 49 51 51 52 52 52 54 56 58 59 58 58 61 65 66 69 75 76 74 81 84 84 84 81 79 75 72 70 73 75 75 77 76 76 77 75 72
49 48 48 48 48 50 51 53 54 55 55 56 57 60 62 63 62 62 65 66 68 74 80 80 82 85 86 89 86 84 80 76 76 75 77 79 80 81 81 81 79 80 78
52 51 50 49 49 51 52 54 56 57 57 58 61 64 66 65 66 67 70 71 73 78 82 83 85 87 90 93 90 87 82 80 79 81 82 82 84 85 85 84 85 82 82
58 57 55 54 55 54 53 57 59 60 61 64 66 69 69 69 71 72 74 75 78 81 86 88 86 92 95 94 92 89 85 84 85 86 89 90 91 92 93 94 91 88 89
63 63 62 61 61 60 60 61 63 65 66 69 70 71 73 74 75 77 79 82 84 86 89 88 94 98 99 98 97 91 89 91 92 93 94 96 98 100 100 100 99 97 97
65 66 66 66 65 64 64 66 68 69 71 71 73 75 77 78 78 81 83 87 89 91 92 97 102 105 105 103 99 94 95 97 99 102 104 105 104 107 110 109 108 107 107
66 67 68 69 68 66 67 69 70 71 71 73 75 76 78 80 82 85 88 91 92 93 99 104 107 109 107 106 100 100 102 105 108 111 111 111 115 121 122 123 122 123 122
68 67 69 69 69 69 70 71 71 71 72 73 75 78 82 84 87 89 93 95 97 105 109 111 112 111 111 106 105 107 111 114 116 118 121 122 126 129 129 128 127 125 117
68 69 69 70 71 71 72 74 73 73 74 76 80 83 85 87 91 94 95 97 104 110 115 118 118 116 111 111 114 116 119 121 121 125 126 130 132 134 132 125 112 99 91
71 69 70 71 71 71 71 72 73 74 78 81 83 85 88 92 96 98 102 106 109 113 117 120 121 115 116 119 122 124 126 129 130 133 135 138 138 131 117 103 93 86 80
70 69 67 69 70 71 73 74 76 79 82 83 85 88 91 96 102 107 110 112 114 117 118 120 119 123 126 127 129 131 133 136 138 140 141 140 128 111 100 91 85 79 73
66 67 70 70 72 72 74 76 79 82 84 86 88 90 100 105 109 113 116 119 121 120 118 116 120 127 131 133 136 135 137 141 146 145 134 121 107 99 92 84 80 75 72
70 72 73 74 75 77 79 81 83 86 86 90 96 102 107 110 115 118 121 124 127 126 114 123 127 131 134 136 141 145 148 147 143 133 118 106 98 92 87 82 78 74 70
76 76 76 77 79 81 83 85 86 91 96 98 102 107 111 116 119 123 125 129 128 126 127 126 134 137 138 142 147 151 150 140 124 112 105 98 93 89 84 78 74 71 68
80 79 79 81 84 86 89 92 94 98 100 102 108 113 118 120 124 125 128 128 128 134 137 136 139 140 144 149 150 144 134 118 110 103 97 94 88 81 78 74 71 69 66
83 81 83 86 88 90 93 95 98 102 105 111 114 119 120 123 126 128 128 128 134 139 144 146 144 149 153 153 140 125 113 108 102 97 91 85 82 78 73 70 68 67 66
84 85 87 89 92 94 97 99 102 107 111 115 119 120 124 126 128 127 128 134 139 144 147 147 151 153 152 139 121 109 104 99 93 88 82 78 74 69 67 64 63 63 63
85 86 89 92 95 98 100 104 107 112 115 118 118 123 126 128 129 130 135 140 145 146 148 152 155 150 136 121 110 103 95 88 86 78 73 70 66 64 61 59 58 57 61
88 90 92 95 97 100 104 107 111 113 114 116 122 124 128 128 131 137 142 147 148 149 153 155 148 130 121 110 102 94 86 80 76 70 64 66 62 59 56 54 54 54 57
90 92 94 96 100 102 105 109 109 111 116 121 121 125 126 132 137 142 146 146 150 155 154 145 128 118 107 101 92 85 78 73 67 62 60 63 56 54 52 49 50 50 51
91 93 95 98 101 104 105 105 110 116 115 118 122 126 131 138 143 144 143 149 154 152 141 127 118 106 98 88 81 75 70 68 62 55 55 56 52 49 47 46 45 45 46
90 93 95 98 100 101 105 109 108 111 116 120 126 132 139 141 141 145 149 150 145 132 123 114 103 96 87 79 72 68 62 58 56 52 49 51 47 45 42 41 41 41 43
88 90 92 94 98 100 100 102 108 112 119 126 132 135 136 140 146 150 147 138 127 117 107 98 93 85 78 70 63 59 57 54 50 47 45 43 41 42 38 35 36 37 39
Wind_Direction
272 274 278 282 285 287 289 290 291 291 296 298 299 303 307 308 309 310 313 312 314 312 310 316 315 315 317 317 317 315 313 311 311 312 311 311 310 310 313 310 308 305 304
271 277 280 283 285 286 287 288 290 288 293 297 297 302 306 308 308 310 309 309 310 308 309 312 311 311 316 316 317 315 312 310 311 312 311 312 312 311 311 310 310 307 307
269 273 279 286 287 285 286 287 288 288 292 294 295 300 303 306 306 308 309 308 307 308 310 309 307 311 315 315 316 313 311 309 309 309 309 311 311 311 308 307 306 306 304
268 272 278 285 286 283 284 286 287 288 291 291 294 298 303 306 307 307 306 306 306 308 309 306 307 312 314 313 314 311 308 307 307 307 308 307 307 305 303 301 302 300 299
270 273 278 284 281 281 283 285 286 287 289 291 294 298 302 305 305 305 304 303 304 306 308 306 308 310 312 313 312 310 307 305 307 307 306 303 300 301 300 298 296 295 293
269 273 276 278 278 279 281 284 285 287 289 291 295 299 301 303 304 303 303 302 304 305 307 306 306 310 311 311 310 308 305 306 306 304 303 301 300 300 300 297 295 292 290
267 270 272 275 278 279 280 282 284 287 289 294 295 298 299 301 303 304 303 302 303 303 306 305 306 310 310 309 307 305 303 303 302 301 300 301 300 299 297 296 293 290 288
270 272 273 273 277 280 281 283 286 287 291 294 295 297 299 301 302 304 303 303 302 302 305 306 308 308 308 307 306 304 302 301 300 300 301 299 298 297 295 293 290 288 285
268 271 272 274 275 278 281 283 286 289 291 292 294 297 299 301 301 303 302 302 301 301 305 307 308 308 308 306 304 301 300 300 300 300 299 298 296 294 293 292 289 287 285
268 270 273 275 276 278 280 283 286 288 290 293 295 297 299 301 302 303 301 300 299 304 307 306 306 306 304 304 301 300 300 300 301 300 299 297 296 297 296 296 293 289 286
268 271 272 274 275 277 280 283 286 289 291 292 295 298 300 301 302 302 300 299 303 306 306 306 305 304 303 301 300 301 301 301 300 299 299 299 298 296 293 292 289 288 284
266 269 271 274 277 280 283 285 286 288 290 292 295 298 300 301 301 299 297 300 304 306 306 305 304 304 302 302 302 302 301 301 299 299 298 297 296 297 296 294 289 285 281
265 269 271 273 277 280 283 285 287 289 291 293 296 299 300 299 297 297 298 300 303 304 304 303 303 302 303 303 303 302 301 300 300 299 299 299 299 299 296 292 288 283 277
264 268 274 277 279 281 283 285 287 289 291 295 297 298 298 298 298 297 299 301 303 303 303 303 302 303 304 303 303 302 301 301 300 300 301 301 299 297 293 289 284 279 275
267 271 274 277 280 282 285 287 289 291 293 296 296 294 295 296 296 298 301 302 302 302 303 301 302 303 303 303 303 302 301 301 302 302 301 299 296 293 290 286 282 277 272
271 274 276 278 281 283 286 289 290 293 293 291 293 295 296 296 298 300 302 302 302 303 303 303 303 303 303 303 303 303 304 304 304 302 300 298 294 291 288 284 281 276 270
270 273 276 280 282 284 286 289 290 290 293 293 295 295 295 298 300 302 302 302 304 302 302 304 304 304 304 304 304 305 305 305 303 300 298 296 293 290 286 283 279 274 268
270 274 277 280 282 285 286 289 290 291 293 294 294 295 298 300 302 301 302 303 303 302 304 304 305 305 305 305 305 306 305 304 302 299 297 294 292 288 284 281 276 271 265
269 273 275 278 281 284 287 288 289 291 293 294 294 297 300 301 300 301 303 302 302 304 304 306 306 306 306 307 308 306 305 303 301 298 296 293 290 287 283 278 274 268 261
269 272 275 278 280 283 286 288 290 291 293 294 297 299 300 299 301 302 301 302 304 304 305 306 306 306 307 308 307 306 304 302 300 297 296 293 288 285 281 275 269 264 259
269 272 275 277 280 283 285 287 290 291 293 296 298 299 299 300 301 302 302 303 303 304 305 305 307 309 309 308 308 306 305 302 299 298 295 292 289 285 280 276 270 262 256
269 271 274 277 280 283 285 288 290 293 296 297 297 299 299 301 302 302 303 304 304 305 306 307 308 309 309 308 307 306 304 303 300 298 296 291 289 285 280 274 268 262 254
268 271 275 279 281 284 287 290 293 294 295 297 298 298 300 301 301 302 303 304 305 307 307 309 310 309 310 308 307 306 304 302 300 299 296 291 291 285 280 272 266 260 253
269 273 276 279 283 286 289 292 294 294 296 297 299 299 299 301 302 302 303 305 306 308 309 309 310 310 309 308 307 306 306 304 302 299 295 291 287 284 278 273 265 258 250
271 274 278 282 286 289 291 293 294 295 297 298 298 301 302 302 302 302 305 307 307 309 310 310 309 310 308 309 308 308 306 304 302 299 295 292 290 285 279 273 268 259 249
275 279 281 285 288 290 292 293 295 298 299 300 301 301 301 302 304 306 307 307 310 309 309 309 309 309 309 310 310 308 306 306 304 301 297 292 288 284 279 272 265 260 248